Theta_e
339 337 337 339 339 339 340 341 342 342 342 342 343 343 342 342 342 341 340 337 336 335 335 334 333 334 334 333 332 331 332 332 333 333 332 333 333 333 333 334 335 333 333 332 331 331 331 331 331 331 330 330 330 329 329 329 329 330 330 331 332 331 331 331 330 329 329 328 328 328 328 329 331 332 331 331 330 329 329 329 330 331 332 332 331
338 336 337 337 337 338 339 339 340 342 342 342 342 342 342 341 341 340 339 337 336 336 334 333 333 333 332 332 331 331 331 332 333 333 333 333 333 333 333 334 334 334 333 331 330 331 331 331 331 330 330 330 329 329 329 329 329 329 330 331 331 331 331 331 331 330 329 329 328 327 329 330 331 331 331 331 330 329 329 330 330 331 331 331 330
338 336 336 336 335 335 337 338 338 340 341 342 342 341 342 341 341 340 338 337 337 335 334 332 332 332 331 330 331 331 331 331 332 332 333 332 332 333 333 333 333 333 333 331 329 329 330 330 330 330 330 329 329 329 328 328 329 328 329 330 331 330 331 331 331 330 329 328 326 325 327 329 330 330 331 331 331 330 330 331 331 331 330 329 329
339 336 336 335 333 333 335 337 336 338 340 341 341 341 341 341 341 340 339 338 337 335 333 331 329 330 331 330 330 330 330 330 331 331 332 332 332 332 332 333 333 333 332 331 330 329 329 330 330 330 329 329 329 328 328 328 327 327 328 330 330 330 331 331 331 331 330 327 325 325 326 327 329 330 331 330 330 331 331 332 331 331 330 329 328
340 337 336 334 333 333 333 335 335 335 339 340 341 341 341 341 341 340 339 337 336 334 332 330 328 330 331 330 330 330 331 331 331 332 332 332 332 332 332 332 332 332 331 331 331 329 328 329 329 329 328 328 327 327 327 327 326 327 329 329 329 330 330 330 331 332 331 329 328 328 328 328 328 330 330 330 330 331 331 331 331 331 330 328 327
340 338 336 334 334 334 333 333 332 332 336 339 340 340 341 341 341 340 340 338 336 334 331 331 330 330 331 331 330 331 331 331 332 332 332 331 331 332 332 331 331 332 331 330 330 330 328 328 327 328 327 327 326 326 326 325 325 327 328 328 328 328 327 328 330 332 331 330 329 329 329 328 328 329 330 329 330 331 331 331 331 330 327 325 324
341 339 337 335 334 334 333 331 331 330 334 338 339 340 341 341 341 341 340 338 336 334 332 332 330 329 330 330 330 331 331 332 332 332 332 331 331 332 332 332 332 332 332 331 330 330 329 328 327 327 327 326 326 326 326 325 325 326 327 327 327 326 326 327 330 332 331 331 330 329 328 324 325 329 330 330 330 331 331 331 329 327 323 321 319
341 339 337 336 334 334 333 330 330 330 331 335 338 339 340 340 341 341 340 338 337 335 333 331 330 329 330 330 331 331 331 332 332 331 330 331 332 332 331 332 332 332 331 331 330 330 329 328 327 327 326 326 325 325 325 324 324 326 326 326 326 325 326 327 330 331 331 331 330 330 327 320 324 330 329 330 331 331 331 329 327 323 319 316 313
341 340 339 339 336 334 333 331 331 330 330 333 337 337 337 339 340 339 339 338 337 335 333 330 328 329 331 331 332 332 331 331 331 330 330 331 332 331 331 331 331 331 331 330 330 330 329 328 327 327 327 326 325 324 323 321 320 323 326 325 325 325 325 326 329 331 330 331 330 329 326 319 323 329 329 329 330 330 329 327 324 320 316 312 310
341 341 341 340 339 336 333 332 331 330 329 331 335 336 337 337 338 338 338 338 337 335 333 330 328 330 332 331 332 331 330 329 330 330 330 331 330 330 330 330 331 330 330 330 329 329 329 328 327 326 326 325 324 323 323 321 318 319 324 324 323 324 325 326 329 330 330 330 330 329 327 322 323 327 330 329 327 328 327 325 322 319 315 310 308
341 341 341 340 340 337 335 333 331 330 329 328 331 335 337 337 336 335 336 336 336 335 334 332 330 332 333 332 331 330 329 328 330 331 330 330 329 329 330 330 330 330 329 330 329 329 328 328 327 326 326 325 324 323 322 321 318 317 320 322 323 324 324 325 328 328 329 330 330 329 328 327 327 328 330 328 326 326 326 324 322 319 314 308 306
341 341 341 340 340 338 335 333 331 330 330 327 329 333 335 335 335 332 332 333 333 333 333 332 332 333 333 333 332 330 329 329 329 330 330 330 328 328 329 330 330 329 329 329 329 329 328 328 326 326 326 324 323 322 322 321 318 316 318 321 323 324 324 324 327 328 329 330 329 329 327 329 330 329 329 328 327 327 326 324 323 320 313 307 305
341 341 341 340 339 337 335 333 331 330 330 328 328 332 334 334 334 332 332 331 329 330 332 331 331 333 334 334 333 330 329 329 328 329 329 329 329 329 329 329 329 329 329 329 328 328 328 327 327 326 324 322 322 321 322 320 318 317 318 321 323 323 324 324 326 327 329 329 329 327 326 329 330 329 329 329 329 328 326 325 323 319 312 307 304
340 341 340 340 338 337 335 333 332 331 330 329 328 331 334 334 333 333 333 331 327 329 331 329 330 333 334 334 333 331 330 328 327 327 328 329 329 329 329 328 329 328 328 328 328 328 327 327 326 325 322 322 321 320 320 319 317 318 320 322 322 323 323 324 326 327 328 329 329 327 326 328 329 329 329 329 330 328 327 325 323 320 313 307 303
340 340 340 339 339 337 335 333 332 331 330 330 327 329 333 333 333 332 333 331 329 332 331 329 331 332 333 334 334 333 331 328 325 326 327 327 327 328 328 328 328 328 328 328 328 328 327 326 325 322 321 321 320 319 319 318 317 320 323 323 324 323 322 324 325 327 328 328 329 327 325 328 329 329 329 329 330 328 326 325 323 318 312 306 301
339 339 339 339 338 337 336 334 333 332 331 329 326 329 334 333 333 332 332 332 331 333 331 331 332 332 333 334 334 333 333 330 327 327 327 326 325 326 327 326 326 327 327 327 327 327 326 326 324 321 321 321 320 320 320 317 318 322 323 323 324 323 323 324 325 327 328 329 329 326 325 327 329 329 329 329 329 327 325 324 321 316 310 304 299
339 338 338 338 338 337 336 335 334 333 332 330 326 327 331 332 332 332 332 332 332 332 331 331 331 331 333 334 334 333 333 332 330 329 328 327 326 326 325 324 324 326 327 326 326 327 326 325 321 321 321 320 320 320 320 318 318 322 323 322 323 323 324 325 326 327 328 329 328 326 325 326 328 329 329 329 328 326 325 323 321 317 310 302 298
339 338 338 338 338 337 336 336 334 333 332 331 329 327 328 329 330 331 332 332 332 332 331 331 330 329 329 331 332 332 333 332 331 330 330 329 327 327 326 324 324 325 326 326 326 326 326 323 320 321 320 319 320 320 320 318 318 321 322 322 322 322 324 325 326 326 326 328 328 326 324 325 328 329 329 329 328 326 325 324 323 319 309 301 298
339 338 339 338 338 338 337 336 335 334 332 331 331 329 328 328 328 330 331 331 332 332 331 331 330 328 327 327 328 328 331 332 331 331 331 329 328 327 326 325 324 323 324 325 326 326 325 321 319 320 320 320 320 320 319 318 319 320 321 321 322 322 323 324 325 326 325 326 327 325 324 326 328 329 329 328 327 326 325 324 323 319 309 301 299
339 338 339 338 339 339 338 337 336 335 333 332 332 331 330 329 328 328 330 331 331 331 331 331 330 329 327 326 326 325 327 331 331 331 331 330 329 328 326 326 324 323 323 323 324 325 324 320 319 320 320 320 320 320 319 318 319 320 320 320 321 321 322 322 322 325 325 325 326 324 324 327 328 328 329 328 327 326 325 323 323 320 311 303 301
338 338 339 339 339 339 338 338 337 336 334 333 334 332 331 330 329 328 328 329 330 331 330 331 330 330 329 327 327 325 324 327 329 330 330 329 329 328 327 326 325 324 323 323 323 323 323 320 319 320 320 320 320 321 320 319 320 320 320 320 320 320 321 321 321 324 325 324 325 323 325 328 328 328 329 329 328 326 325 323 322 321 314 304 302
338 337 338 339 339 338 338 338 337 337 335 335 335 334 333 332 331 329 328 328 329 330 330 330 329 329 329 328 327 325 324 325 327 328 328 328 328 328 327 326 325 325 323 323 323 322 321 319 319 320 320 320 321 321 321 320 320 321 321 320 320 320 320 320 320 321 322 324 325 324 325 327 328 328 329 328 328 326 324 323 321 321 317 309 304
337 337 336 337 338 338 338 338 338 336 335 336 335 335 334 333 332 331 329 328 328 328 329 329 328 328 328 328 327 325 324 324 325 327 327 328 328 327 327 326 325 325 324 322 321 321 320 319 319 320 320 321 322 322 322 321 320 321 321 321 320 319 320 320 320 319 319 321 324 324 325 326 328 328 328 328 327 325 324 322 321 320 318 314 309
338 337 336 337 338 338 338 338 338 337 336 336 336 335 335 334 334 332 331 329 327 327 328 328 327 327 326 326 326 325 325 326 326 327 328 328 327 327 326 326 325 324 325 324 322 320 319 319 319 320 320 321 322 323 322 322 321 321 321 321 320 320 320 320 320 319 319 319 321 324 325 325 327 327 327 327 326 324 323 322 321 320 319 316 313
337 337 336 336 337 338 337 338 338 337 337 336 336 336 335 335 334 333 332 329 327 326 326 327 326 326 326 326 326 325 325 327 327 327 328 328 328 327 326 326 325 324 325 325 323 321 318 319 320 320 321 322 323 323 323 323 322 321 321 321 321 320 320 319 319 319 319 318 319 322 324 324 325 326 326 326 325 323 323 321 320 320 319 317 316
337 337 337 336 337 337 337 337 337 337 337 336 336 336 335 335 334 333 332 330 328 327 326 326 326 326 326 327 326 324 324 327 327 327 327 327 327 326 326 326 325 324 323 324 324 323 319 317 319 320 321 322 322 323 323 323 322 321 321 321 321 321 320 320 319 318 319 319 318 319 322 323 324 325 325 325 324 323 322 320 319 319 319 318 317
336 337 336 336 335 336 337 337 337 337 336 336 336 335 335 334 334 333 332 331 329 329 328 328 328 327 327 327 327 324 325 327 326 326 325 325 324 324 324 324 325 325 323 323 324 325 321 317 318 319 320 322 322 323 322 322 322 322 322 322 322 321 320 320 319 318 318 319 319 318 318 321 324 323 324 325 324 323 321 319 319 318 318 318 317
336 336 336 336 335 335 336 337 337 337 336 336 335 335 335 334 333 333 332 331 330 330 330 330 329 328 328 328 327 325 326 327 326 325 325 324 324 323 322 321 323 324 323 323 324 324 322 318 317 318 319 322 323 323 322 322 321 321 322 322 322 322 321 320 319 319 319 318 319 318 317 319 322 323 323 324 325 324 321 319 318 318 318 317 317
336 336 336 336 335 335 335 336 336 336 336 336 335 335 335 334 334 334 333 332 331 330 330 330 330 329 328 329 328 326 326 327 327 326 325 325 324 323 321 320 322 323 322 323 324 323 321 318 317 318 319 322 323 323 323 322 321 321 322 321 321 321 321 320 319 319 319 318 318 319 317 317 319 321 322 323 325 324 321 320 319 318 317 317 317
336 336 336 335 335 335 335 335 336 336 336 335 335 335 335 334 334 334 333 333 332 331 330 330 330 329 329 330 330 328 326 326 326 326 326 325 324 323 322 321 322 323 322 323 323 322 321 319 318 319 320 321 323 323 323 322 321 322 322 322 321 321 321 320 320 319 319 318 318 318 318 316 317 319 322 322 323 323 322 320 319 318 317 317 317
336 336 336 335 335 335 334 334 335 335 335 335 335 335 334 334 334 334 333 333 333 332 331 331 331 330 330 330 330 330 328 327 326 325 325 324 323 322 322 321 322 323 323 322 322 322 321 321 320 321 321 322 322 322 323 323 322 322 322 322 322 322 321 320 320 320 319 319 318 318 318 317 317 317 320 322 322 321 322 322 320 319 318 317 317
335 335 335 335 334 334 334 334 334 334 334 334 335 334 334 334 334 334 333 333 333 333 332 331 331 331 330 330 329 329 329 328 327 326 324 324 323 322 322 321 321 321 321 321 320 321 322 322 321 321 321 322 321 321 322 323 323 322 322 322 322 322 322 321 321 321 320 319 318 318 318 317 317 317 316 319 321 320 321 322 322 320 319 318 317
335 335 335 335 334 334 333 334 334 333 333 334 334 334 334 333 334 334 333 333 333 333 332 332 331 331 331 330 329 328 328 327 326 325 324 324 323 323 322 321 319 318 318 319 319 320 322 323 322 321 321 321 320 320 321 323 323 322 322 322 322 322 322 322 321 321 321 319 318 318 318 317 317 317 315 314 318 320 320 321 323 321 319 319 318
334 334 335 334 334 334 333 333 333 333 332 332 332 333 333 333 333 333 334 333 333 333 332 332 332 331 331 330 329 328 328 327 326 325 323 324 323 323 323 322 320 318 317 317 318 318 321 323 322 321 321 321 320 320 321 322 322 322 321 322 322 322 322 322 321 320 321 320 319 318 318 318 317 317 317 315 314 318 320 320 322 322 321 319 318
333 334 334 334 334 334 333 333 333 333 332 331 331 332 333 333 332 332 333 333 333 333 332 332 332 331 331 330 329 328 328 327 326 325 323 323 324 323 323 323 321 320 318 318 317 317 320 322 322 321 321 320 319 320 321 322 322 322 322 322 322 322 322 322 321 321 321 320 320 319 318 318 317 317 317 317 315 314 318 321 321 322 322 321 319
332 333 333 334 334 334 334 334 333 332 332 331 331 332 333 333 332 331 332 333 333 333 333 332 332 332 331 330 329 328 328 327 327 326 324 323 324 324 323 323 322 321 320 320 318 317 318 320 321 321 320 320 319 320 321 322 322 322 322 322 322 322 322 321 321 321 321 321 320 319 319 318 317 317 317 317 317 314 314 319 321 321 322 322 319
331 331 332 333 334 334 334 334 333 332 331 331 331 332 333 333 333 331 330 332 332 333 332 332 332 332 332 331 330 329 328 327 326 326 325 324 324 324 324 324 323 322 322 321 319 318 318 320 321 321 320 320 320 320 320 321 322 322 320 320 321 322 322 322 321 321 321 321 321 320 319 319 317 317 317 317 317 316 314 316 320 320 321 322 321
331 331 331 332 333 333 334 334 333 332 331 331 331 331 333 333 333 332 331 330 331 332 332 332 332 332 332 331 331 329 328 327 327 326 326 325 324 323 324 324 323 323 322 321 320 319 319 319 320 320 320 320 320 319 320 320 320 320 317 317 320 322 322 322 321 321 321 321 321 321 320 319 318 317 318 317 317 317 316 315 317 319 319 320 320
331 331 331 332 332 332 333 333 333 332 332 331 331 331 332 333 333 333 332 330 330 330 332 332 332 332 332 332 331 329 329 328 327 326 326 326 325 324 324 324 323 323 323 322 321 320 319 319 319 319 320 320 319 319 319 319 318 318 317 318 320 322 322 322 322 322 322 321 321 321 321 320 319 319 318 317 317 317 317 316 315 316 317 319 320
329 330 331 332 332 332 332 332 332 332 332 332 332 332 332 333 333 332 332 331 331 330 331 332 332 332 331 331 331 329 329 328 328 327 326 326 326 325 324 324 323 323 323 323 322 321 320 320 320 319 319 319 320 319 319 318 318 318 319 320 321 322 322 322 322 322 322 322 321 321 321 321 320 320 319 318 317 317 317 317 316 315 314 316 318
327 328 330 331 332 332 332 332 332 332 332 332 332 332 332 332 332 332 332 331 331 330 330 331 331 331 331 331 330 329 329 329 328 327 326 326 326 326 325 324 324 323 323 323 323 322 321 320 320 319 319 319 319 319 319 319 319 320 320 321 321 321 322 322 322 322 322 322 322 321 321 321 320 320 319 318 318 317 317 317 317 316 314 313 314
326 327 329 330 331 332 332 332 332 332 332 332 332 332 332 332 331 331 331 331 331 331 330 330 330 330 331 330 330 329 329 328 328 328 327 326 326 326 326 325 324 323 323 323 323 323 322 321 320 319 319 319 319 319 319 319 320 320 319 320 321 322 321 322 322 322 322 322 322 322 321 321 321 320 320 319 318 318 317 316 317 317 316 314 313
325 326 327 328 330 330 332 332 332 332 332 332 332 331 331 331 331 331 331 330 330 330 331 330 330 329 330 330 329 329 328 328 328 327 327 326 325 325 326 326 325 324 323 323 323 323 323 322 321 320 320 320 320 320 320 319 319 320 320 321 322 322 322 321 321 322 322 322 322 322 322 321 321 321 320 320 319 319 318 317 317 317 317 316 315
324 325 326 327 328 329 330 331 332 332 332 332 332 332 331 331 331 331 331 330 330 330 330 330 330 329 330 330 329 329 328 328 327 327 327 326 326 325 325 326 325 324 323 323 323 323 323 323 322 321 320 320 320 320 320 320 319 320 320 321 320 320 323 321 319 321 321 322 322 321 322 321 321 321 321 320 320 319 319 318 317 317 317 317 316
326 326 325 326 327 328 328 329 330 331 331 332 332 332 332 331 331 331 331 330 330 329 329 329 330 329 329 330 329 329 328 328 327 327 327 326 326 325 324 325 325 325 324 323 323 323 323 323 322 322 321 320 320 319 320 320 320 320 320 321 321 322 324 319 317 320 320 320 322 321 321 321 321 321 321 320 320 319 319 318 318 317 317 317 317
326 327 326 327 327 327 328 328 329 329 330 331 332 332 332 331 331 331 331 330 329 329 329 329 329 329 329 329 329 329 328 328 327 327 327 326 326 326 325 325 325 325 325 324 323 323 323 323 323 322 321 321 320 319 319 320 321 321 320 320 320 321 321 319 319 323 322 320 320 321 321 321 321 321 321 321 320 320 319 318 318 318 317 317 317
326 327 326 326 326 326 326 327 327 328 329 330 331 332 332 331 331 331 331 330 329 329 329 329 329 329 329 329 329 329 328 328 327 326 326 326 325 325 325 325 325 325 325 324 323 323 323 322 322 322 322 321 320 319 319 319 320 321 321 320 318 318 318 319 322 323 325 324 321 320 321 321 321 321 321 321 320 320 320 319 319 318 318 317 317
326 326 327 326 326 326 325 325 325 326 328 329 330 331 332 331 331 331 331 330 330 329 329 329 329 329 329 329 328 328 328 327 327 326 326 326 325 325 325 326 326 326 326 325 324 323 323 322 322 322 321 321 321 320 319 319 319 320 321 321 320 319 317 319 320 320 323 326 323 320 320 320 321 321 321 321 320 320 320 319 319 318 318 317 317
326 326 326 326 325 325 325 325 324 325 326 328 330 330 331 331 331 331 330 330 330 329 329 329 329 329 328 328 328 328 328 327 326 326 325 325 325 325 325 326 326 326 326 325 324 323 323 322 322 322 321 321 320 320 320 319 319 319 320 320 320 320 319 318 319 318 319 322 324 323 319 318 319 320 320 320 320 320 319 319 318 318 317 317 317
325 325 324 324 323 324 325 325 324 324 325 327 329 330 330 331 331 330 330 330 330 329 329 329 329 328 328 328 328 328 328 327 326 326 325 325 325 325 325 326 326 326 326 326 325 324 323 323 322 322 321 321 320 320 320 319 319 318 319 319 319 320 319 318 318 317 317 318 321 322 318 316 317 319 319 320 320 320 319 319 318 318 317 317 317
323 323 322 321 321 322 323 324 324 324 324 325 327 329 329 330 330 330 330 330 330 329 329 329 329 328 328 328 328 327 327 327 326 326 325 325 325 325 326 326 327 326 326 326 325 324 324 323 323 322 321 321 321 320 320 320 319 318 318 319 319 319 319 319 318 317 317 317 319 320 317 315 316 317 318 319 319 319 319 319 318 318 318 318 318
Wind_Speed
14 14 14 13 12 11 11 11 11 10 11 11 12 12 12 12 12 12 12 13 14 15 14 14 13 13 12 12 12 12 12 12 12 13 13 12 13 13 13 13 12 13 15 16 15 15 15 15 15 15 15 14 14 14 15 14 14 14 14 14 14 16 17 16 16 16 16 15 15 15 14 13 12 13 12 12 13 14 15 16 16 17 17 18 19
16 15 14 14 13 11 11 11 11 10 10 10 11 11 12 12 12 12 12 13 14 15 14 12 11 12 12 12 13 13 12 12 13 13 13 13 13 14 14 14 13 13 16 16 15 15 15 15 14 14 14 14 14 14 14 14 13 13 14 14 14 15 16 16 16 16 15 15 14 14 13 13 13 13 12 12 14 14 15 16 16 17 17 18 19
17 16 14 14 13 12 12 11 10 10 10 10 11 11 11 11 12 12 12 13 14 14 13 12 11 12 12 12 13 13 13 12 13 13 13 13 13 13 13 14 13 13 15 15 14 14 14 15 14 14 14 14 13 13 13 12 12 13 15 15 14 15 14 14 15 15 14 14 14 13 12 13 13 13 11 11 13 14 14 15 16 17 17 17 18
17 16 14 14 14 13 13 11 10 10 10 9 10 11 11 11 11 12 12 13 14 13 13 13 11 12 12 12 12 12 13 13 12 12 12 13 13 13 13 13 13 13 13 14 14 14 14 14 14 14 14 13 13 12 12 11 12 16 16 15 14 13 12 12 12 12 13 13 13 13 13 13 12 12 11 11 13 14 15 15 16 17 17 17 17
16 16 14 14 14 13 12 11 10 10 10 9 10 10 11 11 11 12 12 13 13 12 12 12 12 11 12 11 12 13 13 13 13 13 13 13 13 13 13 13 13 13 12 12 13 13 13 13 13 14 13 13 13 12 11 10 14 17 15 13 12 11 11 10 10 10 12 12 12 12 12 12 11 10 9 9 12 14 15 16 16 17 17 16 16
15 15 14 14 14 12 12 10 10 10 10 10 10 10 11 10 11 10 11 13 12 12 12 11 10 10 11 11 12 12 13 13 13 13 13 13 13 13 12 13 12 12 12 11 12 12 13 13 13 13 12 12 12 11 10 10 14 15 12 11 11 10 10 9 9 10 11 12 11 10 9 9 11 10 7 8 11 13 14 15 16 16 16 16 15
11 13 14 13 13 12 11 10 9 9 10 10 9 10 10 9 9 9 11 12 12 11 11 11 9 9 11 11 11 12 12 12 13 13 13 13 12 12 12 12 12 12 12 11 11 11 12 12 12 11 11 11 11 10 9 9 12 13 11 10 10 9 9 10 9 10 10 10 10 8 6 7 11 11 6 8 12 13 14 14 15 15 14 14 14
10 13 13 11 11 11 10 10 9 8 10 11 9 9 9 9 9 9 11 12 12 10 9 10 9 9 11 11 11 12 12 12 13 13 13 12 12 12 12 12 12 11 11 11 11 11 10 10 11 10 9 9 9 9 9 8 9 11 10 9 9 9 9 9 9 10 8 8 9 7 6 7 13 10 5 8 12 12 14 14 14 13 13 13 13
12 13 12 11 10 11 11 10 9 8 9 10 10 9 9 8 8 9 10 12 12 9 8 8 7 10 12 11 11 11 12 11 11 12 11 11 12 12 11 11 11 11 11 11 10 10 9 9 9 10 9 8 8 8 8 7 7 10 10 9 8 8 9 9 9 10 9 9 9 7 7 9 13 10 6 8 11 12 13 13 13 12 12 12 12
16 13 11 10 9 10 10 10 8 7 8 9 11 9 8 8 7 7 8 11 11 8 8 7 6 10 12 12 12 11 11 11 10 11 11 11 11 11 10 11 11 10 10 10 9 9 8 8 8 8 8 7 7 6 6 6 6 8 10 8 7 8 10 12 11 10 11 11 10 8 8 9 10 10 8 8 9 11 12 11 12 12 12 11 10
18 15 11 9 9 8 9 9 8 8 7 8 10 9 9 8 7 6 6 8 9 7 8 8 8 10 12 13 12 11 10 11 10 10 11 10 10 10 10 10 10 10 10 9 9 9 8 8 7 7 7 6 6 6 6 5 5 6 10 9 7 8 9 12 11 10 11 9 9 8 7 9 9 9 8 8 9 10 11 11 11 11 11 10 9
18 15 11 9 8 8 9 9 8 8 8 8 10 10 11 10 7 6 6 7 7 7 8 8 9 9 11 13 12 11 10 11 11 9 10 9 9 9 9 10 10 9 9 9 9 8 7 7 6 6 6 5 5 5 5 5 5 5 9 9 7 8 9 11 10 9 9 8 8 8 7 8 7 6 7 9 10 11 11 11 12 11 10 9 9
17 14 11 9 8 9 9 8 7 7 7 8 11 11 12 11 8 7 8 8 7 8 9 9 10 10 10 12 12 10 9 10 11 10 10 9 9 9 9 9 9 9 8 8 8 8 7 7 6 6 4 4 4 4 4 4 5 6 9 9 8 8 8 10 9 7 8 8 7 6 8 8 4 4 7 9 10 12 12 11 11 10 8 8 8
15 13 11 9 8 9 9 8 7 6 6 6 9 11 12 12 10 9 9 7 7 9 10 9 10 10 9 11 11 9 8 10 12 11 10 9 9 9 9 8 8 8 8 8 8 7 7 6 6 5 4 4 4 4 4 5 6 9 11 10 9 8 8 9 8 6 5 6 5 5 7 7 3 4 7 10 11 12 12 11 11 9 7 7 7
13 11 9 7 7 9 9 8 6 5 5 5 7 10 13 12 10 10 9 8 8 10 10 9 10 9 9 11 11 10 9 10 12 11 10 9 9 9 9 9 8 8 8 8 7 7 6 6 5 5 5 5 5 4 5 6 8 11 12 11 10 9 9 9 7 5 5 5 5 4 6 6 4 5 8 10 12 12 11 11 10 8 6 6 7
13 10 8 7 7 8 8 8 7 5 5 5 7 11 14 13 11 11 9 9 9 10 10 9 9 9 9 11 11 11 10 11 11 10 9 9 8 9 9 8 7 7 7 8 7 6 6 6 5 5 6 5 5 5 5 7 10 13 13 11 10 9 9 8 5 5 5 5 5 4 5 6 5 5 8 10 11 11 10 10 8 6 5 5 6
13 11 9 8 7 7 8 8 8 6 6 6 7 12 14 14 13 12 10 10 10 11 10 9 8 8 8 10 10 11 11 12 12 10 10 8 8 9 9 7 7 7 7 8 7 6 6 5 5 5 5 5 5 4 5 7 11 13 13 11 10 10 9 7 5 4 4 5 5 4 4 5 6 6 8 10 10 10 10 9 7 4 4 5 6
12 11 10 9 8 8 8 8 8 8 7 7 8 10 12 13 14 13 11 11 11 11 10 9 8 7 7 7 8 8 9 12 12 11 10 8 8 9 7 6 7 9 9 8 7 7 7 5 5 6 5 5 5 3 4 6 11 13 12 10 10 11 10 7 4 3 3 5 5 4 4 6 7 7 9 10 9 9 10 9 6 3 3 5 6
13 11 11 10 9 8 9 8 9 9 9 9 9 10 11 11 13 14 13 11 12 11 11 10 9 8 8 8 7 7 8 9 10 10 9 8 8 7 6 6 7 9 9 9 8 8 7 5 5 6 6 5 4 3 4 6 11 11 10 10 10 11 10 6 3 3 2 4 4 4 6 7 7 8 9 9 8 9 9 8 7 4 4 6 6
13 13 12 10 10 10 10 9 9 9 10 11 10 11 11 11 12 14 15 13 13 12 12 11 10 9 9 9 8 7 8 8 9 9 9 9 8 7 6 7 8 8 9 9 9 9 8 6 6 6 6 5 4 4 6 7 10 10 9 9 9 10 10 5 2 4 3 3 5 6 7 7 7 9 9 9 10 11 9 7 7 6 5 7 6
14 15 15 13 12 12 11 11 10 9 10 11 11 11 12 12 12 13 15 15 15 14 13 12 11 10 10 10 9 9 9 9 10 10 10 10 9 8 7 8 8 7 9 10 10 9 8 7 7 7 5 5 4 5 6 8 9 8 7 8 9 8 9 5 2 4 4 4 6 7 8 8 7 8 9 10 11 9 8 6 6 7 6 7 7
17 18 18 18 17 16 14 13 13 11 11 11 12 12 12 13 13 14 15 16 16 15 15 14 13 12 11 10 9 9 9 10 11 11 11 11 11 10 8 9 9 8 8 9 10 11 9 8 8 7 6 6 6 6 6 7 6 6 6 6 7 7 7 7 5 5 5 5 6 7 8 9 8 9 10 10 9 7 7 6 6 8 7 7 8
20 21 22 22 21 19 18 17 16 14 13 13 13 13 13 13 13 14 15 16 17 18 17 16 15 14 13 12 10 9 9 11 11 11 11 12 12 12 10 10 10 9 9 9 10 12 11 10 10 8 6 7 8 7 7 6 4 5 5 4 5 6 6 7 7 7 7 6 7 8 9 9 9 9 10 10 9 7 6 6 7 8 8 8 8
22 23 23 23 23 22 21 20 18 16 16 16 16 15 15 15 14 15 15 16 18 19 19 18 17 16 15 14 12 11 11 12 12 12 12 13 13 13 12 12 12 11 10 9 10 12 12 10 11 10 9 10 10 9 8 7 5 5 6 4 3 5 7 8 8 8 8 8 9 10 10 10 10 10 10 10 9 7 7 6 7 8 8 9 8
22 21 22 22 23 22 22 21 20 18 17 18 19 18 17 17 16 15 15 15 17 19 20 19 19 18 17 15 14 13 14 15 15 16 14 14 14 13 13 13 13 12 12 11 10 13 13 11 11 11 11 11 11 11 10 9 8 7 7 6 5 5 7 8 8 9 9 9 9 11 12 10 11 11 9 10 9 8 9 8 8 9 9 9 9
22 22 22 23 23 23 23 22 21 20 19 20 20 19 19 19 17 17 16 15 16 18 19 20 20 19 18 17 16 17 18 17 17 18 16 15 15 14 14 15 15 15 15 14 13 13 14 14 13 12 12 12 12 11 11 11 9 9 9 8 7 7 8 8 9 10 11 9 8 10 13 13 13 12 11 11 10 10 9 9 10 10 10 10 9
24 24 23 22 23 24 24 24 23 22 22 21 21 21 21 20 18 18 18 17 17 17 19 20 20 20 20 19 19 20 20 18 19 19 18 18 17 16 16 17 18 18 17 16 15 14 14 16 16 14 13 13 13 11 11 11 10 10 10 9 9 10 10 9 10 11 10 10 8 8 11 15 15 14 14 13 12 12 9 10 12 11 12 11 10
25 26 25 24 23 23 25 26 25 24 24 23 23 23 23 21 20 19 19 19 19 19 19 19 19 20 21 20 20 22 22 20 21 21 20 20 20 19 18 18 20 19 17 16 16 15 15 17 18 16 15 15 14 11 11 13 13 12 12 12 13 13 12 11 11 11 11 10 10 8 9 15 18 16 16 15 13 13 12 11 12 12 13 12 11
27 27 26 26 25 24 25 27 27 27 26 26 26 26 25 24 22 22 22 22 22 21 20 19 19 20 22 22 21 23 24 23 23 22 21 22 22 21 19 18 19 19 18 17 17 16 16 18 19 18 17 17 15 12 13 16 16 15 14 15 15 13 12 12 12 13 12 12 12 10 9 12 18 18 18 18 15 14 15 13 12 13 14 13 12
27 27 27 27 26 25 26 28 29 28 28 27 28 28 27 27 26 25 24 24 25 23 21 21 21 21 22 24 24 25 26 26 26 24 24 23 23 23 21 19 20 19 19 19 19 18 17 18 19 18 18 18 16 14 15 17 16 15 17 17 16 14 13 13 14 14 14 14 14 13 11 10 14 18 19 19 16 15 15 14 14 14 14 15 14
26 27 28 29 27 27 28 29 30 30 29 29 29 29 29 29 28 27 27 26 26 25 24 24 24 23 23 24 25 26 27 27 28 27 26 24 23 24 22 21 22 22 21 21 22 21 19 19 19 19 20 19 18 17 18 19 17 16 17 18 18 15 14 14 15 16 16 14 14 14 13 12 12 15 18 21 19 17 17 16 15 15 15 16 15
29 30 31 30 29 29 30 31 31 31 31 31 31 30 30 30 30 29 29 28 27 27 27 26 26 26 25 25 26 26 26 27 28 29 28 25 24 25 23 24 25 25 25 23 22 23 21 20 20 20 20 21 21 20 19 20 19 17 17 19 19 18 17 16 16 18 17 16 15 14 15 15 14 14 16 21 22 20 20 19 16 16 16 16 16
33 33 31 30 31 31 31 32 32 32 32 33 33 32 32 31 32 31 30 29 29 29 29 28 28 27 27 27 27 27 27 27 27 28 28 26 25 26 25 25 25 25 26 24 22 23 24 23 22 22 22 23 23 21 19 20 20 19 19 20 21 22 20 18 17 18 19 18 17 16 16 15 15 14 14 18 24 24 23 22 19 18 18 17 16
34 33 32 32 32 32 32 32 33 33 34 34 34 34 33 32 33 33 31 31 31 31 31 32 31 30 30 29 28 28 28 27 26 27 28 26 25 27 27 26 25 24 25 25 23 23 25 25 24 24 24 24 24 22 22 23 22 21 21 21 21 22 22 19 17 18 20 19 18 18 18 16 15 16 15 15 20 25 25 24 22 20 19 19 18
33 33 34 34 33 33 33 33 33 34 34 34 35 35 35 34 33 34 34 32 32 33 33 34 34 33 32 32 31 30 29 28 27 26 28 29 27 28 29 27 24 24 24 24 24 24 25 27 26 26 26 26 26 25 24 25 24 23 22 22 22 21 22 21 18 18 20 20 20 19 19 19 18 18 17 15 17 22 26 26 24 23 22 21 20
33 33 34 34 34 33 33 34 34 34 35 35 36 36 36 36 34 34 35 35 33 34 35 35 35 35 35 35 34 33 32 31 29 27 28 30 30 29 29 28 25 23 24 23 24 25 26 27 27 28 28 28 28 27 27 26 26 25 23 23 23 22 22 22 21 20 20 21 21 21 20 20 20 19 18 17 17 19 24 27 26 25 24 23 22
33 33 33 33 34 34 35 35 35 35 36 36 36 37 37 37 37 35 35 36 36 36 36 35 35 36 36 37 36 35 34 33 32 30 29 30 32 31 29 28 26 25 24 24 24 25 26 28 28 29 30 30 29 29 29 28 27 27 26 25 24 24 25 26 25 23 21 23 23 23 23 21 20 20 20 20 19 18 21 26 27 26 25 26 25
32 32 33 33 34 35 36 37 37 36 36 36 36 37 38 37 37 36 35 36 37 38 37 36 36 37 37 38 36 36 35 34 33 32 31 31 32 33 31 29 28 27 26 25 25 26 26 28 29 30 31 32 31 30 31 30 29 29 28 27 26 26 27 28 27 25 24 25 25 25 25 25 23 22 22 23 23 21 20 24 27 27 27 28 27
32 32 33 33 33 34 36 37 37 37 36 35 36 36 36 36 36 36 36 36 37 38 38 38 37 37 38 38 36 36 36 36 35 33 33 32 32 33 33 32 31 30 28 28 28 28 29 30 30 31 32 33 33 32 32 30 28 27 27 26 26 28 27 26 26 27 26 26 27 27 27 27 26 25 24 24 25 25 23 23 25 28 30 30 30
32 32 33 33 34 34 34 36 37 36 35 34 35 35 35 35 35 34 36 38 38 38 38 39 37 37 38 37 36 37 37 37 37 36 34 33 33 34 34 33 33 32 31 31 32 32 32 32 32 32 33 33 34 33 31 28 26 26 27 28 27 28 28 28 28 27 28 28 28 28 29 29 29 28 26 25 25 27 27 26 26 27 29 31 31
31 32 33 34 35 35 35 36 36 36 35 35 35 36 36 35 34 35 38 39 39 38 38 39 39 39 38 37 36 36 37 37 38 38 36 35 34 34 35 35 33 33 34 34 34 34 34 33 33 32 33 33 33 34 31 27 24 23 23 26 28 29 29 30 31 31 31 32 31 30 30 30 30 31 29 27 26 27 29 29 28 27 28 30 31
31 32 33 34 34 35 35 36 35 36 37 37 37 38 39 39 37 38 39 39 38 39 40 41 41 40 39 37 36 36 36 37 38 38 38 37 36 34 35 36 35 35 35 34 34 34 35 34 33 33 33 34 34 33 32 27 23 21 15 12 17 25 29 30 33 34 34 34 33 32 32 31 32 32 31 30 29 28 29 29 29 28 28 29 31
32 33 33 34 33 34 35 36 35 36 38 39 39 40 40 41 39 38 38 36 35 38 40 39 39 40 39 37 37 37 37 37 37 37 38 38 38 37 36 36 37 37 36 35 35 35 36 36 36 35 32 32 32 32 33 32 26 19 11 6 6 9 15 23 31 36 37 36 35 34 34 34 34 34 33 33 32 31 30 30 30 30 29 30 31
31 31 32 32 33 34 35 35 36 37 38 39 41 41 40 38 38 36 34 32 32 33 34 36 37 37 37 38 39 39 38 37 37 37 38 39 39 39 37 36 37 38 37 37 37 37 37 37 37 37 33 30 30 32 34 36 32 21 9 4 3 2 5 10 19 31 37 37 37 37 37 36 36 35 35 35 35 34 33 32 32 32 32 32 32
29 31 31 32 33 34 35 35 36 37 39 39 40 39 36 34 33 31 29 28 28 28 30 34 36 36 38 40 41 40 38 38 38 38 39 40 39 39 39 38 37 38 39 39 39 38 38 38 38 38 37 33 31 30 31 35 38 33 21 8 3 3 5 5 7 17 28 34 38 38 38 38 38 37 37 37 36 35 35 35 35 34 34 34 34
28 30 31 32 33 34 34 34 35 36 38 38 38 36 35 33 31 30 28 27 27 29 33 37 37 39 40 41 40 39 38 38 38 39 40 40 40 39 39 39 39 39 40 40 40 39 39 40 40 39 40 39 33 27 27 32 36 39 36 26 15 8 4 4 4 5 12 24 33 36 38 39 40 39 39 38 37 37 37 37 37 38 37 37 37
25 27 29 31 32 32 32 33 33 34 36 35 35 35 35 34 32 33 33 31 31 34 37 37 36 37 38 37 37 37 38 38 39 39 40 41 41 40 40 40 40 40 40 40 41 41 41 41 41 41 40 40 36 29 28 31 31 35 40 38 33 25 13 6 6 2 3 10 21 30 35 37 39 40 40 40 39 39 39 40 40 40 40 39 39
20 20 23 25 27 29 30 31 32 32 33 33 33 34 35 35 35 35 35 36 36 35 34 32 33 34 34 35 36 36 37 39 40 40 41 41 41 41 41 40 41 42 41 41 42 42 42 41 40 41 41 39 38 36 33 31 29 31 35 37 38 36 29 21 14 8 3 3 8 17 26 33 37 39 40 40 41 40 40 40 40 40 41 40 40
15 15 16 18 20 24 26 28 29 30 30 31 32 33 35 36 36 36 36 37 37 34 30 28 31 32 33 35 36 36 37 38 40 41 41 41 41 41 41 42 43 43 42 43 42 41 41 41 41 41 42 41 40 40 37 34 32 30 30 33 35 33 32 31 26 17 9 6 6 6 13 20 27 36 41 40 40 41 40 40 39 40 40 40 40
11 12 13 15 17 20 22 25 27 27 27 28 30 32 34 36 36 36 36 35 33 31 28 27 29 29 32 34 35 37 37 38 40 41 41 41 41 41 42 43 44 44 43 43 42 42 42 42 42 42 42 42 41 41 40 37 35 32 31 30 31 28 23 21 24 23 15 12 10 7 9 12 14 27 38 41 42 42 41 41 40 40 40 40 40
11 12 13 15 17 18 19 20 22 23 24 25 26 29 32 35 36 36 35 34 31 29 28 29 29 29 31 34 35 36 37 38 39 39 41 42 41 41 42 43 44 44 44 44 44 44 43 42 42 41 42 42 42 41 41 40 36 34 34 33 32 31 25 20 23 26 19 13 10 8 12 16 15 21 29 34 40 42 42 43 43 42 41 41 40
Wind_Direction
157 160 146 135 130 123 118 120 120 125 127 127 127 127 126 121 119 114 108 102 97 98 96 87 85 91 91 92 96 103 105 105 102 97 95 93 91 89 90 89 87 86 85 86 88 88 88 89 88 87 86 84 82 82 82 83 83 84 89 90 94 100 100 95 89 85 89 86 82 84 83 78 71 69 69 74 86 91 90 89 88 89 90 88 87
158 159 149 141 133 125 118 116 119 122 124 128 128 129 125 122 121 115 110 103 100 101 92 78 81 93 95 96 97 98 102 108 105 99 97 94 90 90 94 95 90 90 90 89 92 90 88 88 88 88 86 84 84 84 86 88 88 91 95 95 95 102 105 103 98 93 91 90 88 87 82 75 71 72 70 75 88 94 93 91 92 91 91 90 89
154 157 151 144 137 131 124 118 120 120 123 128 128 130 128 126 123 118 114 108 106 101 89 77 81 96 97 96 96 96 100 105 104 100 97 94 91 92 95 97 93 91 90 92 96 94 90 89 88 89 88 86 87 87 91 93 93 101 104 101 102 105 107 107 107 104 98 95 95 93 85 77 73 74 72 75 87 95 97 96 97 95 93 92 91
152 156 153 148 143 139 133 128 127 125 125 127 128 131 132 131 127 124 121 115 111 100 92 85 79 94 99 96 97 97 102 105 105 104 100 96 95 98 100 100 98 95 93 93 95 95 93 92 91 91 90 89 88 88 91 96 108 116 114 110 109 106 105 105 106 105 105 100 93 89 85 82 77 76 75 78 87 94 97 99 98 97 94 91 89
148 155 157 151 148 145 140 134 132 133 129 128 131 135 135 134 133 130 128 122 112 98 95 84 72 92 103 98 100 102 106 108 106 107 104 101 101 103 105 103 101 101 98 95 93 96 96 93 93 92 91 91 89 90 90 105 123 125 122 116 112 108 102 94 90 96 105 107 96 88 88 87 83 80 78 81 91 97 99 100 98 95 92 90 88
143 154 161 157 153 147 144 137 128 135 134 130 131 136 137 136 136 132 133 126 111 100 96 87 74 94 109 101 103 106 109 111 108 108 106 105 107 107 105 103 103 105 103 99 95 97 98 94 95 94 92 93 92 93 91 112 131 131 128 122 113 108 100 89 91 93 100 114 110 99 95 96 98 93 82 84 96 103 104 103 100 97 94 90 88
141 155 164 161 156 147 144 139 129 134 133 132 131 135 136 135 134 130 134 126 112 103 95 94 89 101 112 108 109 111 112 114 112 110 109 110 112 111 107 107 107 107 105 102 98 97 98 97 98 97 96 95 95 96 92 111 134 138 134 128 117 105 97 95 104 102 102 117 113 101 83 95 112 105 97 98 102 108 106 104 101 99 94 89 87
141 156 165 163 159 153 145 139 134 134 133 136 133 134 137 133 131 127 131 125 116 108 97 97 98 109 114 114 117 118 117 115 113 111 113 115 115 114 111 109 107 105 104 101 100 100 99 98 98 98 98 96 96 96 93 106 135 145 144 136 120 103 95 95 111 111 105 117 114 106 71 93 118 106 97 104 106 111 107 105 102 96 90 87 87
145 156 162 159 159 158 151 143 137 137 136 139 136 132 131 129 127 124 128 128 125 115 100 93 97 119 121 119 120 120 119 116 116 118 122 120 114 112 111 111 109 108 106 104 106 106 105 99 97 99 98 96 95 93 89 98 130 151 155 146 123 104 87 85 111 106 93 108 112 108 77 91 116 107 97 105 109 114 111 108 102 93 86 85 86
154 162 164 158 155 161 158 148 140 138 138 141 142 137 133 132 130 125 127 131 130 120 107 97 103 128 132 126 123 123 121 122 125 127 125 117 114 116 115 114 113 112 108 108 110 109 108 102 99 101 100 98 95 89 84 86 111 149 164 159 132 108 84 87 108 98 93 108 107 103 85 85 105 109 112 113 116 117 113 108 98 91 87 86 90
162 165 165 160 156 166 164 151 142 137 137 148 149 146 146 145 152 152 143 138 136 130 120 115 121 137 139 133 130 129 127 130 132 131 125 119 127 128 118 116 115 113 110 111 114 113 111 106 103 101 99 98 97 94 86 79 91 134 164 164 140 118 91 92 103 96 98 107 107 106 90 84 98 113 122 124 126 122 113 103 96 93 89 88 93
164 164 160 156 158 169 168 151 140 137 137 150 154 155 157 154 165 173 167 167 165 157 142 137 146 155 149 140 137 131 127 133 134 132 132 128 134 133 121 118 119 116 116 117 116 116 114 112 108 106 106 105 103 98 88 73 76 119 152 154 144 128 101 94 95 94 99 108 117 119 111 108 120 136 135 133 129 120 113 106 103 101 93 89 96
158 161 156 151 155 167 170 150 140 139 139 149 156 163 167 160 156 157 161 168 173 167 156 158 166 169 160 148 144 135 128 137 141 140 140 135 132 134 126 124 124 119 122 121 120 121 119 119 114 116 121 116 106 97 91 66 67 116 139 139 145 139 117 103 98 96 106 121 130 135 135 129 142 158 142 137 130 122 118 114 112 107 95 91 99
148 152 151 153 155 166 171 157 150 144 145 151 159 165 165 162 158 156 159 158 156 159 160 170 172 171 169 156 152 144 134 143 148 144 139 139 138 137 134 133 129 127 130 128 128 129 129 130 133 145 140 127 117 100 92 64 77 121 129 126 134 139 132 118 107 106 117 137 139 143 144 132 136 143 141 141 134 130 124 119 117 111 100 98 107
153 148 146 153 155 167 171 165 167 161 159 149 156 162 158 159 163 165 167 161 154 159 162 169 171 172 177 165 158 153 148 149 149 144 141 149 154 146 141 139 136 141 142 138 138 140 145 143 154 171 145 129 121 103 88 69 97 126 128 124 129 135 137 126 116 124 137 161 155 151 146 132 137 141 143 142 135 133 127 123 122 117 107 107 117
169 166 159 155 153 167 173 174 180 177 168 153 152 158 160 163 166 172 174 166 165 171 170 167 169 171 173 168 165 163 161 155 151 153 153 157 166 161 156 153 153 156 153 154 155 153 156 158 175 170 141 132 119 102 82 80 114 131 133 133 136 139 140 133 133 147 155 178 169 156 151 139 141 147 148 143 138 136 130 128 126 121 115 118 127
175 178 176 168 162 167 174 179 186 185 173 161 158 162 170 173 172 176 176 175 180 185 184 178 175 173 171 167 168 171 168 162 161 169 170 165 168 168 167 177 185 174 167 170 168 163 166 181 188 162 143 140 124 106 77 94 125 136 138 137 137 139 140 138 144 165 178 191 179 162 164 156 151 154 153 146 142 139 131 131 131 127 131 137 137
172 178 179 179 175 169 172 176 182 184 179 171 167 170 176 179 180 181 181 185 190 192 194 193 192 194 192 180 176 181 181 174 173 179 181 174 169 170 170 177 184 180 180 177 175 175 183 198 181 160 156 149 135 112 71 107 133 138 142 139 136 140 138 133 145 178 193 192 180 171 172 164 161 162 159 152 147 143 135 134 139 146 157 155 147
172 177 179 186 186 181 177 173 175 178 179 178 178 179 181 185 188 190 190 193 196 199 201 204 208 209 209 205 201 198 194 186 185 190 190 182 177 180 177 174 180 188 191 185 181 187 197 203 181 169 163 159 153 108 71 118 140 140 143 141 140 146 141 129 154 200 224 214 195 180 166 158 165 169 167 163 150 144 141 142 147 159 176 166 159
174 179 182 192 196 196 191 182 180 178 177 176 180 185 186 188 193 198 199 200 202 205 207 212 217 214 210 209 216 215 204 194 193 200 199 193 191 195 189 183 192 201 203 196 193 199 207 203 183 177 170 174 168 107 86 122 144 142 144 147 144 151 153 143 176 204 220 228 210 189 164 157 170 175 175 167 151 144 145 150 156 166 184 176 166
182 185 186 192 200 206 203 197 194 187 179 176 182 186 187 189 193 201 205 206 207 209 212 216 220 220 214 210 219 224 215 206 203 206 208 206 205 209 204 196 203 213 213 208 206 209 212 204 189 182 183 188 169 127 104 119 139 143 146 153 152 154 164 177 210 210 211 211 207 192 170 165 173 179 178 170 159 154 154 158 164 168 182 183 176
190 191 191 192 197 207 209 206 203 198 189 186 191 189 189 192 194 202 208 212 212 212 215 217 220 222 220 218 222 224 219 216 216 218 221 219 215 217 217 211 214 224 226 221 219 220 213 202 196 188 193 197 176 159 134 124 134 150 157 158 162 163 170 193 215 229 226 210 204 196 179 171 177 184 183 180 169 161 165 170 178 176 181 185 181
196 197 197 196 196 202 209 210 207 205 200 197 202 199 197 200 200 204 210 216 217 215 215 217 220 222 222 222 222 219 216 219 222 227 228 223 218 217 220 221 219 224 233 230 227 226 217 201 198 192 197 203 187 183 173 153 145 161 177 172 171 179 183 198 215 235 235 223 213 201 188 179 185 191 186 184 174 163 169 175 180 181 185 188 187
204 203 202 201 198 201 207 211 210 208 204 202 208 208 205 209 209 210 213 217 220 219 218 219 221 221 220 219 216 213 212 218 225 231 230 222 220 218 218 222 221 224 234 237 230 227 223 207 199 195 200 206 199 201 200 190 182 176 192 201 189 195 200 206 221 235 236 234 226 209 198 189 188 191 187 186 182 179 184 184 186 190 195 196 194
211 210 209 207 204 204 209 212 213 211 207 206 210 211 210 214 216 216 217 217 220 220 221 222 223 222 218 215 210 207 211 219 226 229 228 224 223 224 223 224 223 224 230 236 235 231 228 217 210 204 202 208 211 212 216 218 211 196 202 211 210 213 214 218 226 235 240 242 235 217 207 195 183 189 197 195 194 197 201 208 211 208 205 201 198
213 213 213 212 210 209 211 215 215 213 210 209 213 214 212 216 219 219 217 214 217 220 222 224 224 223 220 216 206 203 209 218 224 222 224 225 226 229 231 229 227 231 235 235 234 237 232 221 219 212 204 211 219 223 231 228 216 209 209 210 219 226 225 227 229 237 245 247 243 228 220 206 187 190 203 204 205 205 210 220 218 214 210 206 203
214 216 216 214 213 211 213 217 216 215 214 212 215 217 216 220 223 222 220 215 215 219 223 224 224 224 221 215 204 201 208 216 219 218 221 227 231 236 239 237 234 239 245 236 229 235 235 225 222 218 211 213 217 225 233 221 208 215 214 214 229 234 230 230 234 238 241 243 245 246 233 217 203 197 203 209 209 205 215 222 215 214 213 210 207
216 219 219 216 216 212 212 215 217 216 216 214 215 218 219 221 223 224 223 220 218 220 224 225 224 224 221 215 205 202 210 216 216 219 225 230 235 240 244 240 234 238 241 230 224 229 235 229 224 222 218 214 216 222 223 220 222 227 227 230 237 238 234 232 234 234 238 243 245 256 249 224 216 211 208 212 215 213 220 221 215 216 215 214 211
216 217 218 218 219 216 213 214 217 217 217 216 215 218 220 221 223 223 223 224 224 223 225 226 225 224 221 218 210 206 212 218 220 223 227 232 237 240 242 234 227 232 231 224 223 227 232 228 223 223 221 215 218 225 227 230 232 229 232 237 239 238 235 232 232 234 241 249 247 250 255 235 224 223 219 219 219 217 219 219 219 219 217 218 216
216 216 215 218 220 217 215 216 218 219 219 218 218 219 219 220 222 223 223 224 227 227 226 227 227 225 222 221 218 214 216 221 225 228 230 236 238 237 237 229 224 228 226 223 224 226 227 224 220 221 222 219 222 228 230 234 234 232 233 235 237 239 240 237 233 237 243 249 249 245 248 249 235 229 226 221 218 215 215 220 221 221 222 221 220
216 216 216 218 218 216 218 219 219 221 221 221 221 221 221 220 221 223 225 225 227 228 229 229 228 228 225 224 225 223 223 226 230 232 233 236 236 234 234 229 226 226 226 227 226 223 221 221 221 221 222 225 228 228 226 232 236 235 235 236 237 240 247 245 236 237 243 247 247 241 243 251 246 239 231 222 220 215 215 220 220 223 226 222 224
217 218 219 218 217 217 218 219 219 221 221 221 222 222 223 221 221 224 226 227 227 228 229 229 228 228 228 228 229 229 230 231 233 235 235 234 233 231 233 231 228 227 227 229 227 221 218 219 224 226 225 227 232 230 227 234 238 235 236 239 237 241 251 251 240 237 242 247 244 241 246 249 249 250 243 230 225 222 221 224 222 224 225 222 224
218 221 221 219 218 219 219 219 219 219 220 222 223 223 223 222 222 224 226 227 226 226 227 227 226 227 228 230 232 234 235 235 235 235 233 233 234 231 234 236 232 228 226 229 227 220 216 219 223 226 226 228 232 230 228 236 238 235 238 242 241 244 251 248 241 239 240 245 246 244 247 246 246 252 255 239 229 227 227 228 225 223 224 224 223
221 221 220 221 221 220 220 220 219 219 221 223 223 223 222 222 222 223 225 227 226 226 227 227 228 228 229 230 232 235 237 237 237 233 229 231 234 233 236 240 236 230 225 225 226 220 215 217 219 222 225 227 229 227 228 233 235 235 238 242 244 247 248 244 244 244 241 244 246 246 246 246 248 252 258 251 236 229 229 232 230 225 224 225 226
224 222 221 223 223 222 221 220 220 221 223 223 223 223 223 223 222 222 223 225 225 226 227 228 229 230 230 231 233 237 238 238 238 235 230 228 231 234 236 239 237 233 227 224 225 223 218 217 217 220 224 226 227 228 229 231 231 233 236 239 245 250 246 241 247 251 245 244 246 245 246 249 251 250 254 256 249 237 230 232 234 231 227 227 229
227 226 225 224 223 223 222 222 222 223 223 224 224 224 224 224 224 223 222 223 225 226 228 230 230 231 232 231 233 236 238 238 237 236 233 229 230 234 236 237 235 233 230 227 226 224 220 218 218 220 222 224 227 228 228 229 230 232 235 238 245 250 245 241 248 252 248 245 245 245 245 249 248 245 249 252 255 248 235 231 233 235 233 229 229
230 230 228 224 222 223 223 223 224 225 226 225 223 223 225 225 225 224 223 223 225 227 229 231 231 232 232 232 232 233 235 236 236 236 235 233 232 233 235 235 233 233 232 229 227 224 220 219 220 222 223 225 227 227 227 229 231 234 238 242 243 247 247 244 248 252 249 245 246 246 244 247 246 243 245 248 251 253 244 234 232 236 237 233 231
232 233 231 229 226 224 223 224 226 228 227 224 223 224 225 225 225 225 225 225 226 228 229 231 232 233 233 233 232 230 231 233 234 234 234 236 234 232 234 234 232 232 231 230 229 225 221 221 222 223 224 226 228 228 229 231 234 239 243 244 241 244 248 246 247 250 247 244 245 246 244 245 246 245 244 246 248 250 249 241 235 235 237 236 233
231 232 233 232 229 226 225 226 227 227 226 225 224 224 224 224 225 225 225 226 227 228 229 230 232 232 232 232 232 231 231 230 230 230 232 235 234 233 234 235 233 232 231 230 230 226 222 222 223 224 224 226 230 231 232 234 237 242 243 242 241 244 248 246 246 246 244 243 245 245 244 245 246 247 246 246 248 246 246 246 242 239 237 235 235
231 231 232 231 229 228 227 226 227 226 224 223 222 221 220 222 222 222 223 225 226 226 227 229 230 231 232 231 232 233 232 231 229 229 230 232 233 234 235 235 234 232 230 229 228 226 222 221 222 224 224 225 229 232 233 234 237 241 242 242 242 244 246 246 245 244 243 245 245 244 244 245 246 246 245 246 249 247 244 245 246 244 240 237 237
230 229 228 228 228 229 227 227 228 226 222 220 219 217 216 218 218 219 222 224 225 224 226 227 228 231 231 230 230 232 232 231 231 229 228 229 231 233 234 234 233 231 230 229 228 227 224 222 223 224 223 223 225 228 228 229 232 237 240 242 243 244 245 245 245 245 246 246 244 243 244 243 244 245 245 247 250 248 245 245 246 246 243 240 239
230 229 227 228 229 228 228 229 229 226 224 222 219 218 218 219 218 219 222 224 223 223 225 227 229 231 231 230 230 231 231 231 231 230 228 228 229 230 232 232 231 230 230 231 230 229 226 224 223 221 222 223 225 225 223 220 225 228 230 245 250 247 245 243 243 245 245 244 242 242 244 244 244 245 245 246 248 248 246 244 244 245 244 242 241
235 233 230 230 228 228 228 229 230 228 228 225 222 222 223 223 223 224 224 224 225 226 227 229 230 231 231 230 231 231 232 231 231 231 230 229 229 229 230 230 229 229 230 230 230 229 226 224 222 220 219 221 225 227 222 217 220 220 218 239 246 247 250 244 241 242 241 240 240 241 244 244 245 246 245 244 245 246 246 245 243 244 244 244 244
235 234 232 229 228 229 230 229 230 231 231 229 227 227 227 227 226 228 228 228 230 230 230 231 231 231 231 231 231 231 231 232 232 232 232 232 231 230 230 229 229 228 229 229 228 227 225 224 222 221 219 219 222 225 224 220 218 209 195 214 207 190 262 241 235 240 239 238 239 240 242 243 244 245 243 243 244 245 246 245 245 245 246 246 246
234 235 234 232 232 233 233 232 232 233 233 232 230 228 226 226 226 227 230 231 232 231 230 230 230 230 231 231 232 231 231 232 232 232 233 233 233 233 231 230 229 228 227 228 228 227 226 224 223 222 221 220 221 223 222 221 219 214 204 191 158 184 246 231 227 244 239 235 237 238 239 241 242 243 242 243 244 245 246 245 246 247 248 248 248
238 238 237 237 237 237 237 237 236 236 236 234 231 227 224 223 222 220 222 223 226 226 226 227 227 228 230 232 232 232 231 232 232 232 233 233 234 234 233 231 230 228 227 227 228 228 226 225 224 223 223 223 223 223 222 219 219 219 216 215 218 218 218 187 190 264 246 234 234 235 235 237 240 241 241 242 243 244 245 245 246 247 249 249 249
248 245 242 240 240 241 242 242 242 241 239 236 232 228 224 223 222 221 222 222 224 228 229 230 230 231 232 233 233 232 232 232 233 233 233 234 235 235 234 233 232 230 229 228 228 228 227 227 225 224 225 225 223 224 224 219 216 220 222 224 231 236 239 214 196 238 274 243 234 232 233 234 237 240 240 241 242 243 245 246 246 247 248 249 249
257 253 247 246 247 249 250 249 249 247 244 240 235 230 227 225 224 225 226 227 229 233 234 233 234 234 234 234 233 233 232 232 233 233 234 235 235 235 234 233 233 232 230 229 229 229 229 228 227 226 226 225 223 224 226 221 215 219 221 223 230 236 240 240 235 227 221 273 248 235 235 234 235 239 240 241 242 243 245 245 246 247 247 247 248
262 261 259 261 262 260 257 253 251 250 248 244 239 235 231 229 227 227 229 231 234 237 238 237 237 236 235 235 234 233 233 233 233 234 234 234 234 234 234 233 233 232 231 231 231 231 230 229 227 226 225 225 225 225 226 225 221 220 218 219 226 233 237 241 243 242 233 241 250 242 233 231 235 239 239 240 242 243 244 245 246 246 246 247 247
267 271 273 274 273 270 264 256 252 252 251 248 243 239 236 232 230 230 232 235 237 239 241 241 239 236 235 236 235 235 235 234 235 235 235 235 234 234 234 233 233 232 232 232 232 231 231 230 229 228 227 226 226 226 226 228 227 225 222 219 220 223 229 236 239 236 233 236 240 246 231 214 226 239 237 236 238 240 242 243 245 245 245 246 247
283 283 283 281 280 279 273 265 259 255 253 251 248 245 241 236 234 234 236 238 239 239 239 241 240 237 236 236 236 236 236 236 236 235 236 236 234 234 234 234 233 233 232 232 232 232 231 231 230 230 229 228 228 227 228 229 229 229 227 224 221 220 219 222 227 223 220 227 232 245 239 221 223 240 240 239 238 238 240 242 242 243 243 244 245